This is the latest recevied weather packets stored in our database for station/object W1RCY. If no packets are shown the sender has not sent any weather packets the latest 10 day(s).
| Time | Temp. | Humidity | Pressure | Rain* | Wind** | Luminosity | Snow |
|---|---|---|---|---|---|---|---|
| 1777737804 | 7.78° C | 91% | 1010 hPa | 0 mm | - | 242 W/m² | - |
| 1777737503 | 8.33° C | 91% | 1009.9 hPa | 0 mm | - | 168 W/m² | - |
| 1777737200 | 8.33° C | 91% | 1010.2 hPa | 0 mm | - | 142 W/m² | - |
| 1777736896 | 8.33° C | 92% | 1010.3 hPa | 0 mm | - | 105 W/m² | - |
| 1777736288 | 7.78° C | 93% | 1010.2 hPa | 0 mm | - | 85 W/m² | - |
| 1777735984 | 8.33° C | 94% | 1010.5 hPa | 0 mm | - | 85 W/m² | - |
| 1777735682 | 7.78° C | 93% | 1010.1 hPa | 0 mm | - | 117 W/m² | - |
| 1777735379 | 7.78° C | 93% | 1010.2 hPa | 0 mm | - | 127 W/m² | - |
| 1777735077 | 7.78° C | 94% | 1010.3 hPa | 0 mm | - | 198 W/m² | - |
| 1777734773 | 7.78° C | 94% | 1010.2 hPa | 0 mm | - | 196 W/m² | - |
| 1777734472 | 7.78° C | 94% | 1010 hPa | 0 mm | - | 156 W/m² | - |
| 1777734168 | 7.78° C | 93% | 1010.3 hPa | 0 mm | - | 126 W/m² | - |
| 1777733864 | 7.78° C | 93% | 1010.5 hPa | 0 mm | - | 127 W/m² | - |
| 1777733561 | 7.78° C | 93% | 1010.6 hPa | 0 mm | - | 147 W/m² | - |
| 1777733257 | 7.78° C | 94% | 1010.8 hPa | 0 mm | - | 188 W/m² | - |
| 1777732954 | 7.78° C | 94% | 1010.7 hPa | 0 mm | - | 183 W/m² | - |
| 1777732650 | 7.78° C | 95% | 1010.8 hPa | 0 mm | - | 190 W/m² | - |
| 1777732348 | 7.78° C | 95% | 1010.5 hPa | 0 mm | - | 178 W/m² | - |
| 1777732045 | 7.78° C | 95% | 1010.7 hPa | 0 mm | - | 140 W/m² | - |
| 1777731742 | 7.78° C | 95% | 1010.7 hPa | 0 mm | - | 155 W/m² | - |
| 1777731439 | 7.78° C | 95% | 1010.9 hPa | 0 mm | - | 203 W/m² | - |
| 1777731137 | 7.78° C | 96% | 1010.7 hPa | 0 mm | - | 351 W/m² | - |
| 1777730835 | 7.22° C | 96% | 1010.7 hPa | 0 mm | - | 219 W/m² | - |
| 1777730532 | 7.22° C | 95% | 1010.7 hPa | 1.78 mm | - | 200 W/m² | - |
| 1777730228 | 6.67° C | 95% | 1010.9 hPa | 1.78 mm | - | 102 W/m² | - |
* Rain latest hour (hover to see other rain measurements)
** Current wind speed in m/s (hover to see current wind gust speed)